KB1WCR Weather Reports


Display with metric or nautical units.
time (UTC)temp
F
wind
direction
speed
MPH
gust
MPH
rain 1hr
in
rain 24hr
in
rain mn
in
humidity
%
barometer
mb
20260905122400 64 355 1.0 1.0 0.00 0.00 0.00 92 1009.9
20260905121856 64 317 0.0 1.0 0.00 0.00 0.00 93 1009.7
20260905121352 64 309 0.0 0.0 0.00 0.00 0.00 94 1009.9
20260905120851 63 46 0.0 1.0 0.00 0.00 0.00 95 1009.8
20260905120346 63 6 1.0 2.0 0.00 0.00 0.00 94 1009.7
20260905115842 63 33 0.0 1.0 0.00 0.00 0.00 94 1009.8
20260905115340 63 320 0.0 0.0 0.00 0.00 0.00 95 1009.7
20260905114835 63 227 1.0 1.0 0.00 0.00 0.00 95 1009.6
20260905114334 62 25 2.0 3.0 0.00 0.00 0.00 95 1009.7
20260905113834 62 33 1.0 2.0 0.00 0.00 0.00 96 1009.7
20260905113330 62 50 1.0 1.0 0.00 0.00 0.00 97 1009.8
20260905112825 62 84 0.0 0.0 0.00 0.00 0.00 97 1009.8
20260905112320 62 332 0.0 0.0 0.00 0.00 0.00 98 1009.6
20260905111815 61 65 2.0 2.0 0.00 0.00 0.00 98 1009.5
20260905111309 61 311 0.0 0.0 0.00 0.00 0.00 99 1009.6
20260905110808 60 319 0.0 0.0 0.00 0.00 0.00 99 1009.4
20260905110302 60 319 0.0 0.0 0.00 0.00 0.00 99 1009.4
20260905105758 60 293 0.0 0.0 0.00 0.00 0.00 99 1009.5
20260905105257 60 289 0.0 0.0 0.00 0.00 0.00 99 1009.5
20260905104751 59 308 0.0 0.0 0.00 0.00 0.00 99 1009.5
20260905104248 59 311 0.0 0.0 0.00 0.00 0.00 99 1009.2
20260905103747 59 318 0.0 0.0 0.00 0.00 0.00 99 1009.1
20260905103243 59 316 0.0 0.0 0.00 0.00 0.00 99 1009.1
20260905102739 59 313 0.0 0.0 0.00 0.00 0.00 99 1009.0
20260905102235 59 317 0.0 0.0 0.00 0.00 0.00 99 1008.9
20260905101734 59 328 0.0 0.0 0.00 0.00 0.00 99 1008.8
20260905101233 59 338 0.0 1.0 0.00 0.00 0.00 99 1008.9
20260905100728 59 315 0.0 0.0 0.00 0.00 0.00 99 1008.9
20260905100223 58 317 0.0 1.0 0.00 0.00 0.00 99 1008.9
20260905095718 57 312 0.0 0.0 0.00 0.00 0.00 99 1008.9
20260905095218 58 300 0.0 0.0 0.00 0.00 0.00 99 1008.8
20260905094713 58 302 0.0 0.0 0.00 0.00 0.00 99 1008.7
20260905094213 58 301 0.0 0.0 0.00 0.00 0.00 99 1008.9
20260905093707 58 296 0.0 0.0 0.00 0.00 0.00 99 1008.7
20260905093204 58 304 0.0 0.0 0.00 0.00 0.00 99 1008.7
20260905092658 58 304 0.0 0.0 0.00 0.00 0.00 99 1008.5
20260905092153 58 301 0.0 0.0 0.00 0.00 0.00 99 1008.5
20260905091648 58 300 0.0 0.0 0.00 0.00 0.00 99 1008.7
20260905091147 58 298 0.0 0.0 0.00 0.00 0.00 99 1008.7
20260905090642 58 309 0.0 0.0 0.00 0.00 0.00 99 1008.7
20260905090138 58 311 0.0 0.0 0.00 0.00 0.00 99 1008.4
20260905085636 58 296 0.0 0.0 0.00 0.00 0.00 99 1008.6
20260905085132 58 310 0.0 0.0 0.00 0.00 0.00 99 1008.5
20260905084631 57 320 0.0 0.0 0.00 0.00 0.00 99 1008.4
20260905084126 58 318 0.0 0.0 0.00 0.00 0.00 99 1008.5
20260905083621 57 313 0.0 0.0 0.00 0.00 0.00 99 1008.2
20260905083117 57 306 0.0 0.0 0.00 0.00 0.00 99 1008.1
20260905082612 58 315 0.0 0.0 0.00 0.00 0.00 99 1008.2
20260905082108 58 333 0.0 0.0 0.00 0.00 0.00 99 1008.2
20260905081607 58 314 0.0 0.0 0.00 0.00 0.00 99 1008.1
20260905081057 58 313 0.0 0.0 0.00 0.00 0.00 99 1008.3
20260905080557 57 320 0.0 0.0 0.00 0.00 0.00 99 1008.1
20260905080051 58 317 0.0 0.0 0.00 0.00 0.00 99 1008.0
20260905075544 58 318 0.0 0.0 0.00 0.00 0.00 99 1008.0
20260905075038 58 343 0.0 0.0 0.00 0.00 0.00 99 1008.0
20260905074532 58 356 1.0 1.0 0.00 0.00 0.00 99 1008.1
20260905074028 59 31 1.0 1.0 0.00 0.00 0.00 99 1008.1
20260905073523 59 339 0.0 0.0 0.00 0.00 0.00 99 1007.9
20260905073019 59 342 0.0 0.0 0.00 0.00 0.00 99 1007.9
20260905072518 59 333 0.0 0.0 0.00 0.00 0.00 99 1008.1
20260905072014 60 338 0.0 0.0 0.00 0.00 0.00 99 1008.1
20260905071511 60 313 0.0 0.0 0.00 0.00 0.00 98 1008.1
20260905071011 61 322 0.0 0.0 0.00 0.00 0.00 99 1008.1
20260905070507 60 324 0.0 1.0 0.00 0.00 0.00 99 1008.0
20260905070002 60 311 0.0 0.0 0.00 0.00 0.00 99 1008.2
20260905065500 60 340 0.0 0.0 0.00 0.00 0.00 99 1008.4
20260905064955 60 294 0.0 0.0 0.00 0.00 0.00 99 1008.3
20260905064450 59 319 0.0 0.0 0.00 0.00 0.00 99 1008.4
20260905063945 59 307 0.0 0.0 0.00 0.00 0.00 99 1008.3
20260905063439 59 344 0.0 0.0 0.00 0.00 0.00 99 1008.4
20260905062935 59 310 0.0 0.0 0.00 0.00 0.00 99 1008.4
20260905062429 58 292 0.0 0.0 0.00 0.00 0.00 99 1008.1
20260905061924 59 318 0.0 0.0 0.00 0.00 0.00 99 1008.3
20260905061419 59 313 0.0 0.0 0.00 0.00 0.00 99 1008.2
20260905060918 60 325 0.0 0.0 0.00 0.00 0.00 99 1008.2
20260905060415 60 339 0.0 1.0 0.00 0.00 0.00 99 1008.3
20260905055914 60 330 0.0 0.0 0.00 0.00 0.00 99 1008.2
20260905055410 60 298 0.0 0.0 0.00 0.00 0.00 99 1008.3
20260905054908 60 284 0.0 0.0 0.00 0.00 0.00 99 1008.4
20260905054405 60 319 0.0 0.0 0.00 0.00 0.00 99 1008.4
20260905053904 60 307 0.0 0.0 0.00 0.00 0.00 99 1008.4
20260905053359 60 302 0.0 0.0 0.00 0.00 0.00 99 1008.3
20260905052855 60 320 0.0 0.0 0.00 0.00 0.00 99 1008.3
20260905052354 60 324 0.0 0.0 0.00 0.00 0.00 99 1008.5
20260905051854 59 321 0.0 0.0 0.00 0.00 0.00 99 1008.5
20260905051350 58 307 0.0 0.0 0.00 0.00 0.00 99 1008.5
20260905050847 59 308 0.0 0.0 0.00 0.00 0.00 99 1008.4
20260905050343 59 312 0.0 0.0 0.00 0.00 0.00 99 1008.5
20260905045842 59 312 0.0 0.0 0.00 0.00 0.00 99 1008.5
20260905045338 59 318 0.0 0.0 0.00 0.00 0.00 99 1008.3
20260905044833 59 304 0.0 0.0 0.00 0.00 0.00 99 1008.3
20260905044328 60 298 0.0 0.0 0.00 0.00 0.00 99 1008.3
20260905043827 60 291 0.0 0.0 0.00 0.00 0.00 99 1008.4
20260905043322 60 306 0.0 0.0 0.00 0.00 0.00 99 1008.4
20260905042817 60 290 0.0 0.0 0.00 0.00 0.00 99 1008.3
20260905042317 60 291 0.0 0.0 0.00 0.00 0.00 99 1008.3
20260905041812 60 287 0.0 0.0 0.00 0.00 0.00 99 1008.4
20260905041308 60 290 0.0 0.0 0.00 0.00 0.00 99 1008.4
20260905040803 59 291 0.0 0.0 0.00 0.00 0.00 99 1008.6
20260905040301 60 304 0.0 0.0 0.00 0.00 0.00 99 1008.5
20260905035756 60 294 0.0 0.0 0.00 0.01 0.01 99 1008.4
20260905035252 60 289 0.0 0.0 0.00 0.01 0.01 99 1008.5
20260905034749 60 290 0.0 0.0 0.00 0.01 0.01 99 1008.5
20260905034249 60 303 0.0 0.0 0.00 0.01 0.01 99 1008.4
20260905033747 60 302 0.0 0.0 0.00 0.01 0.01 99 1008.6
20260905033243 60 303 0.0 0.0 0.00 0.01 0.01 99 1008.5
20260905032742 60 321 0.0 0.0 0.00 0.01 0.01 99 1008.5
20260905032238 60 307 0.0 0.0 0.00 0.01 0.01 98 1008.5
20260905031732 61 323 0.0 0.0 0.00 0.01 0.01 99 1008.7
20260905031229 61 307 0.0 0.0 0.00 0.01 0.01 98 1008.6
20260905030724 61 301 0.0 0.0 0.00 0.01 0.01 97 1008.7
20260905030218 61 299 0.0 0.0 0.00 0.01 0.01 97 1008.8
20260905025713 61 309 0.0 0.0 0.00 0.01 0.01 97 1008.8
20260905025209 61 312 0.0 0.0 0.00 0.01 0.01 96 1008.8
20260905024704 62 296 0.0 0.0 0.00 0.01 0.01 97 1008.7
20260905024200 62 312 0.0 0.0 0.00 0.01 0.01 95 1008.6
20260905023654 62 303 0.0 0.0 0.00 0.01 0.01 95 1008.7
20260905023149 63 309 0.0 0.0 0.00 0.01 0.01 94 1008.7
20260905022648 63 299 0.0 0.0 0.00 0.01 0.01 94 1008.7
20260905022144 64 304 0.0 0.0 0.00 0.01 0.01 93 1008.8
20260905021643 64 332 0.0 0.0 0.00 0.01 0.01 92 1008.8
20260905021139 65 315 0.0 0.0 0.00 0.01 0.01 90 1008.7
20260905020639 65 295 0.0 0.0 0.00 0.01 0.01 88 1008.7
20260905020134 66 302 0.0 0.0 0.00 0.01 0.01 87 1008.8
20260905015627 66 303 0.0 0.0 0.00 0.01 0.01 86 1008.8
20260905015121 66 354 0.0 0.0 0.00 0.01 0.01 86 1009.0
20260905014615 67 305 0.0 0.0 0.00 0.01 0.01 86 1009.0
20260905014111 67 307 0.0 0.0 0.00 0.01 0.01 85 1008.8
20260905013602 67 275 0.0 0.0 0.00 0.01 0.01 84 1008.9
20260905013057 68 298 0.0 0.0 0.00 0.01 0.01 83 1008.9
20260905012556 68 287 0.0 0.0 0.00 0.01 0.01 82 1008.9
20260905012054 68 308 0.0 0.0 0.00 0.01 0.01 83 1008.9
20260905011549 68 298 0.0 0.0 0.00 0.01 0.01 81 1008.8
20260905011044 69 297 0.0 0.0 0.00 0.01 0.01 80 1008.9
20260905010539 69 313 0.0 0.0 0.00 0.01 0.01 79 1008.8
20260905010036 69 300 0.0 0.0 0.00 0.01 0.01 79 1008.8
20260905005531 69 289 0.0 0.0 0.00 0.01 0.01 79 1008.7
20260905005026 69 291 0.0 0.0 0.00 0.01 0.01 78 1008.8
20260905004521 69 305 0.0 0.0 0.00 0.01 0.01 78 1008.8
20260905004016 69 275 1.0 1.0 0.00 0.01 0.01 78 1008.8
20260905003512 69 307 0.0 1.0 0.00 0.01 0.01 79 1008.7
20260905003007 70 261 2.0 2.0 0.00 0.01 0.01 77 1008.8
20260905002502 71 276 2.0 2.0 0.00 0.01 0.01 75 1009.0
20260905001956 71 317 1.0 1.0 0.00 0.01 0.01 75 1008.9
20260905001451 71 290 0.0 0.0 0.00 0.01 0.01 75 1008.7
20260905000945 71 302 0.0 0.0 0.00 0.01 0.01 75 1008.7
20260905000441 70 354 2.0 3.0 0.00 0.01 0.01 76 1008.7
20260904235936 70 19 0.0 1.0 0.00 0.01 0.01 78 1008.8
20260904235432 70 318 1.0 1.0 0.00 0.01 0.01 77 1008.7
20260904234931 70 298 0.0 0.0 0.00 0.01 0.01 78 1008.5
20260904234426 70 288 0.0 0.0 0.00 0.01 0.01 78 1008.5
20260904233922 70 303 0.0 0.0 0.00 0.01 0.01 77 1008.5
20260904233417 70 322 0.0 0.0 0.00 0.01 0.01 78 1008.3
20260904232914 71 332 0.0 0.0 0.00 0.01 0.01 76 1008.3
20260904232410 71 301 0.0 0.0 0.00 0.01 0.01 76 1008.4
20260904231906 72 326 0.0 1.0 0.00 0.01 0.01 74 1008.3
20260904231401 72 303 0.0 0.0 0.00 0.01 0.01 73 1008.3
20260904230855 72 329 0.0 1.0 0.00 0.01 0.01 72 1008.4
20260904230354 73 304 0.0 0.0 0.00 0.01 0.01 71 1008.2
20260904225850 73 302 0.0 0.0 0.00 0.01 0.01 70 1008.3
20260904225348 73 26 1.0 1.0 0.00 0.01 0.01 70 1008.4
20260904224848 73 301 2.0 2.0 0.00 0.01 0.01 70 1008.3
20260904224343 73 298 0.0 0.0 0.00 0.01 0.01 69 1008.4
20260904223842 73 291 0.0 1.0 0.00 0.01 0.01 69 1008.2
20260904223337 74 301 0.0 0.0 0.00 0.01 0.01 69 1008.1
20260904222834 74 313 0.0 0.0 0.00 0.01 0.01 68 1008.3
20260904222333 74 326 1.0 1.0 0.00 0.01 0.01 67 1008.2
20260904221827 74 300 1.0 2.0 0.00 0.01 0.01 67 1008.2
20260904221322 74 262 2.0 3.0 0.00 0.01 0.01 68 1008.2
20260904220818 75 76 2.0 3.0 0.00 0.01 0.01 69 1008.3
20260904220317 75 282 3.0 4.0 0.00 0.01 0.01 71 1008.4
20260904215812 75 312 0.0 0.0 0.00 0.01 0.01 71 1008.3
20260904215307 75 283 0.0 1.0 0.00 0.01 0.01 70 1008.4
20260904214803 75 306 0.0 0.0 0.00 0.01 0.01 69 1008.1
20260904214259 75 281 0.0 0.0 0.00 0.01 0.01 68 1008.3
20260904213756 76 300 2.0 2.0 0.00 0.01 0.01 68 1008.1
20260904213252 76 291 0.0 0.0 0.00 0.01 0.01 67 1008.2
20260904212748 77 64 3.0 3.0 0.00 0.01 0.01 64 1008.1
20260904212242 78 260 1.0 2.0 0.00 0.01 0.01 64 1008.3
20260904211737 78 346 5.0 7.0 0.00 0.01 0.01 65 1008.1
20260904211232 78 269 2.0 3.0 0.00 0.01 0.01 64 1008.2
20260904210727 79 260 1.0 1.0 0.00 0.01 0.01 65 1008.3
20260904210222 79 272 3.0 4.0 0.00 0.01 0.01 65 1008.2
20260904205718 79 13 2.0 2.0 0.00 0.01 0.01 65 1008.1
20260904205214 78 298 1.0 1.0 0.00 0.01 0.01 67 1008.0
20260904204710 77 7 1.0 1.0 0.00 0.01 0.01 69 1008.1
20260904204206 76 282 3.0 3.0 0.00 0.01 0.01 71 1008.0
20260904203702 75 333 0.0 0.0 0.00 0.01 0.01 75 1008.0
20260904203158 76 191 2.0 2.0 0.00 0.01 0.01 73 1007.9
20260904202653 77 289 0.0 0.0 0.00 0.01 0.01 72 1007.9
20260904202150 77 29 2.0 2.0 0.00 0.01 0.01 73 1008.0
20260904201644 78 303 2.0 2.0 0.00 0.01 0.01 77 1007.9
20260904201138 77 285 2.0 2.0 0.00 0.01 0.01 79 1008.1
20260904200633 76 255 2.0 2.0 0.00 0.01 0.01 79 1008.0
20260904200128 75 296 1.0 1.0 0.00 0.01 0.01 84 1008.1
20260904195626 75 303 0.0 0.0 0.00 0.01 0.01 87 1008.2
20260904195126 74 292 0.0 0.0 0.00 0.01 0.01 87 1008.2
20260904194619 73 301 0.0 1.0 0.00 0.01 0.01 84 1008.0
20260904194115 73 311 0.0 0.0 0.00 0.01 0.01 85 1008.0
20260904193609 74 2 1.0 1.0 0.07 0.01 0.01 82 1008.0
20260904193106 76 21 1.0 1.0 0.07 0.01 0.01 77 1008.1
20260904192605 77 25 2.0 2.0 0.00 0.00 0.00 71 1007.9
20260904192101 78 6 4.0 4.0 0.00 0.00 0.00 69 1008.1
20260904191557 79 74 2.0 2.0 0.00 0.00 0.00 68 1008.0
20260904191054 79 343 1.0 2.0 0.00 0.00 0.00 68 1008.2
20260904190549 79 275 1.0 2.0 0.00 0.00 0.00 67 1008.2
20260904190045 80 333 0.0 0.0 0.00 0.00 0.00 66 1008.2
20260904185536 80 302 2.0 2.0 0.00 0.00 0.00 65 1008.3
20260904185030 80 298 1.0 1.0 0.00 0.00 0.00 64 1008.1
20260904184525 81 55 3.0 4.0 0.00 0.00 0.00 63 1008.2
20260904184020 81 201 1.0 1.0 0.00 0.00 0.00 61 1008.0
20260904183515 80 275 2.0 3.0 0.00 0.00 0.00 64 1008.0
20260904183010 80 251 1.0 2.0 0.00 0.00 0.00 63 1007.9
20260904182505 81 303 1.0 2.0 0.00 0.00 0.00 64 1008.1
20260904182005 81 24 3.0 3.0 0.00 0.00 0.00 63 1008.2
20260904181501 82 308 1.0 2.0 0.00 0.00 0.00 64 1008.0
20260904180956 80 316 0.0 0.0 0.00 0.00 0.00 71 1008.1
20260904180456 80 291 0.0 0.0 0.00 0.00 0.00 68 1008.4
20260904175950 78 319 3.0 3.0 0.00 0.00 0.00 68 1008.3
20260904175450 78 276 2.0 2.0 0.00 0.00 0.00 70 1008.3
20260904174943 79 305 3.0 3.0 0.00 0.00 0.00 69 1008.2
20260904174438 80 276 5.0 7.0 0.00 0.00 0.00 68 1008.1
20260904173936 80 336 2.0 3.0 0.00 0.00 0.00 69 1008.3
20260904173435 79 18 2.0 3.0 0.00 0.00 0.00 70 1008.2
20260904172931 79 273 3.0 4.0 0.00 0.00 0.00 68 1008.3
20260904172426 80 276 2.0 3.0 0.00 0.00 0.00 67 1008.3
20260904171915 80 265 3.0 4.0 0.00 0.00 0.00 67 1008.4
20260904171411 80 29 5.0 8.0 0.00 0.00 0.00 68 1008.4
20260904170907 79 2 2.0 2.0 0.00 0.00 0.00 71 1008.2
20260904170402 78 314 1.0 2.0 0.00 0.00 0.00 72 1008.4
20260904165857 80 312 2.0 3.0 0.00 0.00 0.00 69 1008.5
20260904165355 78 266 1.0 2.0 0.00 0.00 0.00 71 1008.4
20260904164850 78 33 2.0 2.0 0.00 0.00 0.00 73 1008.5
20260904164349 77 1 1.0 1.0 0.00 0.00 0.00 73 1008.7
20260904163846 79 344 2.0 4.0 0.00 0.00 0.00 70 1008.8
20260904163345 78 20 2.0 2.0 0.00 0.00 0.00 72 1008.8
20260904162845 77 54 2.0 3.0 0.00 0.00 0.00 72 1008.9
20260904162341 78 42 3.0 4.0 0.00 0.00 0.00 71 1008.8
20260904161836 79 57 5.0 6.0 0.00 0.00 0.00 70 1008.9
20260904161331 78 292 3.0 4.0 0.00 0.00 0.00 71 1009.0
20260904160827 79 301 4.0 6.0 0.00 0.00 0.00 69 1009.0
20260904160327 80 260 2.0 2.0 0.00 0.00 0.00 72 1008.9
20260904155822 78 339 1.0 1.0 0.00 0.00 0.00 75 1009.3
20260904155316 77 296 2.0 3.0 0.00 0.00 0.00 75 1009.2
20260904154815 79 287 3.0 3.0 0.00 0.00 0.00 73 1009.1
20260904154310 78 335 2.0 3.0 0.00 0.00 0.00 78 1009.2
20260904153806 79 290 3.0 3.0 0.00 0.00 0.00 73 1009.2
20260904153301 77 20 1.0 1.0 0.00 0.00 0.00 77 1009.3
20260904152757 77 3 2.0 2.0 0.00 0.00 0.00 76 1009.3
20260904152252 78 277 1.0 1.0 0.00 0.00 0.00 79 1009.1
20260904151747 77 289 2.0 2.0 0.00 0.00 0.00 80 1009.5
20260904151246 76 258 0.0 0.0 0.00 0.00 0.00 82 1009.5
20260904150742 75 269 1.0 1.0 0.00 0.00 0.00 84 1009.5
20260904150237 76 271 2.0 2.0 0.00 0.00 0.00 83 1009.6
20260904145735 76 266 1.0 2.0 0.00 0.00 0.00 83 1009.4
20260904145231 75 224 2.0 2.0 0.00 0.00 0.00 83 1009.4
20260904144726 76 251 1.0 2.0 0.00 0.00 0.00 85 1009.5
20260904144222 75 305 0.0 0.0 0.00 0.00 0.00 86 1009.6
20260904143717 75 272 0.0 0.0 0.00 0.00 0.00 86 1009.5
20260904143214 74 291 0.0 0.0 0.00 0.00 0.00 87 1009.6
20260904142710 73 232 1.0 1.0 0.00 0.00 0.00 88 1009.7
20260904142206 73 252 1.0 1.0 0.00 0.00 0.00 89 1009.8
20260904141705 72 283 0.0 0.0 0.00 0.00 0.00 89 1009.9
20260904141201 73 222 1.0 1.0 0.00 0.00 0.00 91 1009.9
20260904140657 71 259 0.0 1.0 0.00 0.00 0.00 90 1009.7
20260904140151 72 317 2.0 2.0 0.00 0.00 0.00 90 1009.6
20260904135650 71 255 0.0 0.0 0.00 0.00 0.00 92 1009.9
20260904135146 70 293 0.0 1.0 0.00 0.00 0.00 94 1009.8
20260904134642 70 246 1.0 2.0 0.00 0.00 0.00 95 1009.8
20260904134141 69 20 1.0 1.0 0.00 0.00 0.00 96 1009.6
20260904133636 68 257 1.0 1.0 0.00 0.00 0.00 98 1009.8
20260904133132 68 246 1.0 1.0 0.00 0.00 0.00 99 1009.9
20260904132631 68 254 1.0 1.0 0.00 0.00 0.00 98 1009.7
20260904132126 67 249 1.0 1.0 0.00 0.00 0.00 99 1009.8
20260904131626 66 308 0.0 1.0 0.00 0.00 0.00 99 1010.0
20260904131122 66 277 0.0 0.0 0.00 0.00 0.00 99 1009.6
20260904130621 66 281 0.0 0.0 0.00 0.00 0.00 99 1009.7
20260904130116 65 303 1.0 1.0 0.00 0.00 0.00 99 1009.9
20260904125613 65 357 0.0 0.0 0.00 0.00 0.00 99 1009.8
20260904125112 65 277 1.0 1.0 0.00 0.00 0.00 99 1009.8
20260904124608 64 320 0.0 0.0 0.00 0.00 0.00 99 1009.8
20260904124103 64 307 1.0 1.0 0.00 0.00 0.00 99 1009.9
20260904123603 64 305 0.0 0.0 0.00 0.00 0.00 99 1009.8
20260904123059 65 294 0.0 0.0 0.00 0.00 0.00 99 1009.9